• Processing (Info)

  • MPEC 2019-O01 : 2013 UT22

    The following Minor Planet Electronic Circular may be linked-to from your own Web pages, but must not otherwise be redistributed electronically.

    A form allowing access to any MPEC is at the bottom of this page.


    Read MPEC 2019-N160 Read MPEC 2019-O02


    M.P.E.C. 2019-O01                                Issued 2019 July 16, 01:13 UT  
    
         The Minor Planet Electronic Circulars contain information on unusual
             minor planets and routine data on comets.  They are published
        on behalf of Division F of the International Astronomical Union by the
              Minor Planet Center, Smithsonian Astrophysical Observatory,
                              Cambridge, MA 02138, U.S.A.
    
                 Prepared using the Tamkin Foundation Computer Network
    
                                  MPC@CFA.HARVARD.EDU
                URL https://www.minorplanetcenter.net/    ISSN 1523-6714
    
                                    2013 UT22                                
    
    Observations:
         K13U22T 7C2012 12 07.14908602 20 04.59 +02 05 05.1          22.8 rUEO001W84
         K13U22T*7C2013 10 29.16600702 29 56.96 +02 07 04.4          23.4 gUEO001W84
         K13U22T 7C2013 11 08.23975702 29 05.20 +02 01 40.7          23.5 gUEO001W84
         K13U22T 7C2013 11 08.24113402 29 05.19 +02 01 40.7          22.8 rUEO001W84
         K13U22T 7C2013 11 08.25762702 29 05.11 +02 01 40.2          22.1 iUEO001W84
         K13U22T 7C2013 11 13.13598402 28 40.41 +01 59 18.9          22.5 zUEO001W84
         K13U22T 7C2013 11 23.21253502 27 51.32 +01 55 04.0          22.3 iUEO001W84
         K13U22T 7C2013 11 23.21391202 27 51.31 +01 55 03.9          22.1 zUEO001W84
         K13U22T 7C2013 12 01.18655102 27 15.39 +01 52 21.9          23.5 gUEO001W84
         K13U22T 7C2013 12 01.18795102 27 15.38 +01 52 21.9          23.1 rUEO001W84
         K13U22T 7C2013 12 28.11636602 25 45.24 +01 48 08.5          24.3 gUEO001W84
         K13U22T 7C2013 12 28.11774302 25 45.22 +01 48 08.7          23.1 rUEO001W84
         K13U22T 7C2013 12 28.11910902 25 45.23 +01 48 08.6          22.4 iUEO001W84
         K13U22T 7C2014 09 24.30134302 39 18.58 +02 14 21.0          24.1 gUEO001W84
         K13U22T 7C2015 12 15.16045102 39 38.30 +01 20 32.6          22.5 iUEO001W84
         K13U22T 7C2016 10 28.22662002 49 53.40 +01 23 39.2          22.4 iUEO001W84
         K13U22T 7C2016 10 29.22355302 49 48.36 +01 23 06.0          22.6 rUEO001W84
         K13U22T 7C2016 11 10.25408602 48 46.79 +01 16 55.3          22.5 zUEO001W84
         K13U22T 7C2016 11 25.13704902 47 32.51 +01 10 52.1          22.9 rUEO001W84
         K13U22T 7C2016 11 25.15206002 47 32.43 +01 10 51.4          23.7 gUEO001W84
         K13U22T 7C2016 12 21.12556702 45 45.60 +01 05 31.4          23.1 iUEO001W84
         K13U22T 7C2017 08 27.40723402 59 45.44 +01 47 20.5          23.0 rUEO001W84
         K13U22T 7C2017 09 01.40641202 59 40.45 +01 44 29.5          20.6 iUEO001W84
         K13U22T 7C2017 09 24.38935202 58 47.86 +01 30 13.4          22.7 iUEO001W84
         K13U22T 7C2017 09 26.32373802 58 41.41 +01 28 58.6          22.7 rUEO001W84
         K13U22T 7C2017 11 01.17498802 56 02.96 +01 07 09.1          22.3 zUEO001W84
         K13U22T 7C2017 11 01.19605302 56 02.85 +01 07 08.2          22.5 zUEO001W84
         K13U22T 7C2017 11 22.16702502 54 16.30 +00 57 37.3          22.0 zUEO001W84
         K13U22T 7C2017 12 07.09432902 53 06.65 +00 53 16.2          24.0 gUEO001W84
         K13U22T 7C2017 12 07.09667802 53 06.64 +00 53 16.1          22.9 rUEO001W84
         K13U22T 7C2017 12 07.10141202 53 06.63 +00 53 16.1          22.6 zUEO001W84
         K13U22T 7C2017 12 13.11195602 52 41.69 +00 52 10.0          23.7 gUEO001W84
         K13U22T 7C2017 12 21.15222202 52 12.09 +00 51 18.6          22.9 gUEO001W84
         K13U22T 7C2017 12 21.15459502 52 12.08 +00 51 18.5          22.3 rUEO001W84
         K13U22T 7C2017 12 21.15931702 52 12.03 +00 51 18.7          22.1 zUEO001W84
         K13U22T 7C2017 12 21.16196802 52 12.03 +00 51 18.7          22.1 zUEO001W84
    
    Observer details:
    W84 Cerro Tololo-DECam.  Observers G. Khullar, H. Wu, T. Li, E. Balbinot,
        C. Davis, J. A. Smith, M. Sako, A. Ferte, D. Gulledge, E. Buckley-Geer,
        A. Smith, D. Nagasawa, D. Goldstein, I. Friswell, M. Rodriguez-Monroy,
        R. Capasso, E. Sheldon, D. Mudd, M. Medford, A. Pace, L. Old, J. Annis,
        K. Reil, L. Secco, W. Wester, R. Das, B. Soergel, D. James, A. Plazas,
        A. Kremin, R. Cawthon, J. Muir, Y. Zhang, M. Wiesner, M. Johnson,
        N. Kuropatkin, P. Melchior, P. Rooney, A. Stebbins, B. Nord, A. Pujol,
        S. Hamilton, G. Bernstein, M. C. March, M. Murphy.  Measurers D. Gerdes,
        K. Franson.  4.0-m f/2.87 reflector + CCD.
    
    Orbital elements:
    2013 UT22
    Epoch 2019 Apr. 27.0 TT = JDT 2458600.5                 MPC
    M  53.15242              (2000.0)            P               Q
    n   0.00360125     Peri.  137.47411     +0.85937210     +0.49687234
    a  42.1535603      Node   194.26167     -0.48907795     +0.86764151
    e   0.2131345      Incl.   29.36944     +0.14927273     -0.01777889
    P 274              H    7.1           G   0.15           U   2
    Residuals in seconds of arc
    121207 W84  0.1-  0.0     131228 W84  0.0   0.0     170926 W84  0.1-  0.0
    131029 W84  0.0   0.2-    140924 W84  0.1+  0.0     171101 W84  0.0   0.1+
    131108 W84  0.0   0.1-    151215 W84  0.1-  0.1-    171101 W84  0.0   0.1-
    131108 W84  0.0   0.0     161028 W84  0.0   0.0     171122 W84  0.1+  0.1+
    131108 W84  0.1+  0.0     161029 W84  0.0   0.1+    171207 W84  0.2-  0.0
    131113 W84  0.1+  0.1+    161110 W84  0.1-  0.0     171207 W84  0.2-  0.1-
    131123 W84  0.0   0.0     161125 W84  0.0   0.3+    171207 W84  0.0   0.0
    131123 W84  0.0   0.0     161125 W84  0.1-  0.1-    171213 W84  0.2-  0.1-
    131201 W84  0.1+  0.0     161221 W84  0.0   0.0     171221 W84  0.4+  0.0
    131201 W84  0.0   0.0     170827 W84  0.0   0.1-    171221 W84  0.4+  0.1-
    131228 W84  0.1+  0.1-    170901 W84  0.2+  0.0     171221 W84  0.2-  0.1+
    131228 W84  0.2-  0.1+    170924 W84  0.0   0.0     171221 W84  0.0   0.1+
    
    Ephemeris:
    2013 UT22                a,e,i = 42.15, 0.21, 29                 q = 33.1692
    Date    TT    R. A. (2000) Decl.     Delta      r    Elong.  Phase     V
    2019 06 16    03 08 41.4 +01 39 13  39.0166 38.2629    41.6     1.0    23.1
    ...
    2019 07 01    03 10 00.9 +01 38 53  38.8504 38.2713    54.7     1.2    23.1
    ...
    2019 07 09    03 10 37.0 +01 37 50  38.7461 38.2758    61.8     1.3    23.1
    ...
    2019 07 15    03 11 00.8 +01 36 38  38.6623 38.2792    67.2     1.4    23.1
    2019 07 16    03 11 04.5 +01 36 24  38.6480 38.2798    68.1     1.4    23.1
    2019 07 17    03 11 08.1 +01 36 10  38.6335 38.2803    69.0     1.4    23.1
    ...
    2019 07 23    03 11 27.9 +01 34 32  38.5448 38.2837    74.4     1.5    23.1
    ...
    2019 07 31    03 11 49.2 +01 31 51  38.4223 38.2882    81.7     1.5    23.1
    ...
    2019 08 15    03 12 12.7 +01 25 26  38.1876 38.2966    95.4     1.5    23.1
    
    A. U. Tomatic                (C) Copyright 2019 MPC           M.P.E.C. 2019-O01
    


    Read MPEC 2019-N160 Read MPEC 2019-O02


    MPEC number:

    Enter an MPEC number in one of the following forms:

    • 1997-B01 (the full form)
    • J97B01 (the packed version of the full form)
    • B01 (the abbreviated form)